Location: Kuffner-Sternwarte
(48.2130°N, 16.2960°E)
Time: 11:09:53
(UTC+02:00)

COROT - Pass Details

Date: 20 May 2018
Orbit: 602 x 886 km, 90.0° (Epoch: 19 October)

Event Time Altitude Azimuth Distance (km) Brightness Sun altitude
Rises 22:27:09 0° 357° (N) 3,010 10.1 -14.5°
Reaches altitude 10° 22:29:23 10° 352° (N) 2,130 9.3 -14.7°
Maximum altitude 22:33:56 52° 277° (W) 897 6.6 -15.1°
Drops below altitude 10° 22:38:50 10° 202° (SSW) 2,290 8.1 -15.5°
Enters shadow 22:39:15 - 201° (SSW) 2,451 8.3 -15.6°
